Weather History for Fulton Cnty AP, Rochester, IN, IN

Change the Weather History Date:

Sunday, March 9, 2014

  Actual Average Record
Temperature  
Mean Temperature 29 °F -  
Max Temperature 39 °F 44 °F 39 °F (2014)
Min Temperature 19 °F 23 °F 19 °F (2014)
Degree Days  
Heating Degree Days 36    
Moisture  
Dew Point 26 °F    
Average Humidity 83    
Maximum Humidity 93    
Minimum Humidity 70    
Precipitation  
Precipitation 0.00 in - - ()
Sea Level Pressure  
Sea Level Pressure 30.13 in    
Wind  
Wind Speed 5 mph (SW)    
Max Wind Speed 17 mph    
Max Gust Speed 22 mph    
Visibility 9 miles    
Events      
Averages and records for this station are not official NWS values.
T = Trace of Precipitation, MM = Missing Value Source: NWS Daily Summary

Daily Weather History Graph

Daily Weather History Graph

Search for Another Location

Airport:

Trip Planner

Search our weather history database for the weather conditions in past years. The results will help you decide how hot, cold, wet, or windy it might be!

Date:

Astronomy

Mar. 09, 2014 Rise Set
Actual Time 8:06 AM EDT 7:44 PM EDT
Civil Twilight 7:38 AM EDT 8:12 PM EDT
Nautical Twilight 7:06 AM EDT 8:44 PM EDT
Astronomical Twilight 6:34 AM EDT 9:16 PM EDT
Moon 1:34 PM EDT (3/9) 3:33 AM EDT (3/9)
Length of Visible Light 12h 33m
Length of Day
11h 38m
First Quarter, 61% of the Moon is Illuminated
Mar 9
First Quarter
Mar 16
Full
Mar 23
Last Quarter
Mar 30
New
Apr 7
First Quarter

Hourly Weather History & Observations

Time (EDT) Temp. Windchill Dew Point Humidity Pressure Visibility Wind Dir Wind Speed Gust Speed Precip Events Conditions
12:15 AM 23.0 °F 18.4 °F 21.2 °F 93% 30.24 in 10.0 mi NNW 3.5 mph - N/A   Clear
12:35 AM 23.0 °F - 21.2 °F 93% 30.24 in 10.0 mi Calm Calm - N/A   Clear
12:55 AM 23.0 °F - 21.2 °F 93% 30.24 in 10.0 mi Calm Calm - N/A   Clear
1:15 AM 23.0 °F - 21.2 °F 93% 30.23 in 10.0 mi Calm Calm - N/A   Clear
1:35 AM 23.0 °F - 21.2 °F 93% 30.24 in 10.0 mi Calm Calm - N/A   Clear
1:55 AM 23.0 °F - 21.2 °F 93% 30.24 in 10.0 mi Calm Calm - N/A   Clear
3:15 AM 23.0 °F - 19.4 °F 86% 30.25 in 10.0 mi Calm Calm - N/A   Clear
3:35 AM 23.0 °F - 19.4 °F 86% 30.24 in 10.0 mi Calm Calm - N/A   Clear
3:55 AM 23.0 °F - 19.4 °F 86% 30.24 in 10.0 mi Calm Calm - N/A   Clear
4:15 AM 23.0 °F 18.4 °F 21.2 °F 93% 30.24 in 10.0 mi West 3.5 mph - N/A   Clear
4:35 AM 23.0 °F 17.0 °F 19.4 °F 86% 30.24 in 10.0 mi West 4.6 mph - N/A   Clear
4:55 AM 21.2 °F - 19.4 °F 93% 30.23 in 7.0 mi Calm Calm - N/A   Clear
5:15 AM 21.2 °F - 19.4 °F 93% 30.23 in 7.0 mi Calm Calm - N/A   Clear
5:35 AM 21.2 °F - 19.4 °F 93% 30.23 in 7.0 mi Calm Calm - N/A   Clear
5:50 AM 21.2 °F - 19.4 °F 93% 30.24 in 7.0 mi Calm Calm - N/A   Clear
6:15 AM 21.2 °F - 19.4 °F 93% 30.23 in 7.0 mi Calm Calm - N/A   Clear
6:35 AM 21.2 °F - 17.6 °F 86% 30.24 in 5.0 mi Calm Calm - N/A   Clear
6:55 AM 19.4 °F - 17.6 °F 93% 30.25 in 7.0 mi Calm Calm - N/A   Clear
7:15 AM 19.4 °F - 17.6 °F 93% 30.25 in 7.0 mi Calm Calm - N/A   Clear
7:35 AM 19.4 °F 14.3 °F 17.6 °F 93% 30.26 in 7.0 mi WSW 3.5 mph - N/A   Clear
7:55 AM 21.2 °F 16.4 °F 19.4 °F 93% 30.26 in 5.0 mi WSW 3.5 mph - N/A   Clear
8:15 AM 21.2 °F 14.9 °F 19.4 °F 93% 30.25 in 4.0 mi SW 4.6 mph - N/A   Clear
8:35 AM 23.0 °F - 19.4 °F 86% 30.27 in 4.0 mi Calm Calm - N/A   Clear
8:55 AM 23.0 °F 17.0 °F 21.2 °F 93% 30.26 in 4.0 mi SW 4.6 mph - N/A   Clear
9:15 AM 24.8 °F 20.5 °F 23.0 °F 93% 30.26 in 5.0 mi SW 3.5 mph - N/A   Clear
9:35 AM 26.6 °F 22.6 °F 24.8 °F 93% 30.27 in 5.0 mi SW 3.5 mph - N/A   Clear
9:55 AM 28.4 °F 23.3 °F 26.6 °F 93% 30.27 in 7.0 mi SSW 4.6 mph - N/A   Clear
10:15 AM 28.4 °F 21.2 °F 26.6 °F 93% 30.26 in 7.0 mi SSW 6.9 mph - N/A   Clear
10:30 AM 30.2 °F 22.6 °F 26.6 °F 86% 30.25 in 7.0 mi SSW 8.1 mph - N/A   Clear
10:55 AM 32.0 °F 24.8 °F 26.6 °F 80% 30.25 in 7.0 mi SSW 8.1 mph - N/A   Clear
11:15 AM 32.0 °F 24.8 °F 26.6 °F 80% 30.24 in 7.0 mi South 8.1 mph - N/A   Clear
11:35 AM 32.0 °F 24.8 °F 26.6 °F 80% 30.23 in 10.0 mi SSW 8.1 mph - N/A   Clear
11:55 AM 33.8 °F 26.4 °F 26.6 °F 75% 30.22 in 10.0 mi SSW 9.2 mph - N/A   Clear
12:15 PM 33.8 °F 25.3 °F 28.4 °F 81% 30.22 in 10.0 mi SSW 11.5 mph - N/A   Clear
12:35 PM 33.8 °F 24.3 °F 26.6 °F 75% 30.21 in 10.0 mi SW 13.8 mph - N/A   Clear
12:55 PM 35.6 °F 28.0 °F 28.4 °F 75% 30.20 in 10.0 mi SW 10.4 mph - N/A   Scattered Clouds
1:15 PM 35.6 °F 28.0 °F 28.4 °F 75% 30.20 in 10.0 mi WSW 10.4 mph - N/A   Mostly Cloudy
1:35 PM 35.6 °F 27.1 °F 28.4 °F 75% 30.19 in 10.0 mi WSW 12.7 mph 16.1 mph N/A   Mostly Cloudy
1:55 PM 35.6 °F 27.1 °F 28.4 °F 75% 30.18 in 10.0 mi WSW 12.7 mph - N/A   Mostly Cloudy
2:15 PM 37.4 °F 28.9 °F 28.4 °F 70% 30.18 in 10.0 mi WSW 13.8 mph - N/A   Mostly Cloudy
2:35 PM 35.6 °F 25.5 °F 28.4 °F 75% 30.16 in 10.0 mi WSW 17.3 mph 21.9 mph N/A   Mostly Cloudy
2:55 PM 35.6 °F 27.1 °F 28.4 °F 75% 30.15 in 10.0 mi WSW 12.7 mph 21.9 mph N/A   Mostly Cloudy
3:15 PM 37.4 °F 28.9 °F 30.2 °F 75% 30.13 in 10.0 mi WSW 13.8 mph 21.9 mph N/A   Mostly Cloudy
3:35 PM 37.4 °F 28.5 °F 30.2 °F 75% 30.11 in 10.0 mi SW 15.0 mph 19.6 mph N/A   Mostly Cloudy
3:55 PM 37.4 °F 28.5 °F 30.2 °F 75% 30.11 in 10.0 mi WSW 15.0 mph 19.6 mph N/A   Mostly Cloudy
4:15 PM 39.2 °F 32.0 °F 30.2 °F 70% 30.09 in 10.0 mi WSW 11.5 mph 17.3 mph N/A   Scattered Clouds
4:35 PM 39.2 °F 32.0 °F 30.2 °F 70% 30.08 in 7.0 mi SW 11.5 mph 20.7 mph N/A   Clear
4:55 PM 39.2 °F 31.2 °F 30.2 °F 70% 30.07 in 10.0 mi SW 13.8 mph 19.6 mph N/A   Clear
5:15 PM 39.2 °F 32.0 °F 30.2 °F 70% 30.07 in 10.0 mi WSW 11.5 mph 18.4 mph N/A   Clear
5:35 PM 39.2 °F 33.0 °F 30.2 °F 70% 30.05 in 10.0 mi SW 9.2 mph - N/A   Clear
5:55 PM 39.2 °F 32.5 °F 32.0 °F 75% 30.03 in 10.0 mi SW 10.4 mph - N/A   Clear
6:15 PM 39.2 °F 33.0 °F 32.0 °F 75% 30.02 in 10.0 mi SW 9.2 mph - N/A   Clear
6:35 PM 39.2 °F 33.0 °F 32.0 °F 75% 30.02 in 7.0 mi WSW 9.2 mph - N/A   Clear
6:55 PM 39.2 °F 34.2 °F 32.0 °F 75% 30.01 in 7.0 mi SW 6.9 mph - N/A   Clear
7:15 PM 37.4 °F 32.1 °F 32.0 °F 81% 30.01 in 7.0 mi SW 6.9 mph - N/A   Clear
7:35 PM 37.4 °F 32.1 °F 32.0 °F 81% 30.00 in 7.0 mi SSW 6.9 mph - N/A   Clear
7:55 PM 37.4 °F 31.4 °F 32.0 °F 81% 29.98 in 10.0 mi SSW 8.1 mph - N/A   Clear
8:15 PM 37.4 °F 34.9 °F 32.0 °F 81% 29.99 in 7.0 mi SW 3.5 mph - N/A   Clear
8:35 PM 37.4 °F 32.8 °F 32.0 °F 81% 29.98 in 10.0 mi SSW 5.8 mph - N/A   Clear
8:55 PM 37.4 °F 32.1 °F 32.0 °F 81% 29.97 in 7.0 mi SSW 6.9 mph - N/A   Clear
9:15 PM 37.4 °F 31.4 °F 32.0 °F 81% 29.96 in 10.0 mi SSW 8.1 mph - N/A   Clear
9:35 PM 39.2 °F 32.5 °F 32.0 °F 75% 29.95 in 10.0 mi SSW 10.4 mph 16.1 mph N/A   Clear
9:55 PM 39.2 °F 32.5 °F 32.0 °F 75% 29.95 in 10.0 mi SSW 10.4 mph - N/A   Clear
10:15 PM 39.2 °F 31.6 °F 32.0 °F 75% 29.93 in 10.0 mi SSW 12.7 mph 17.3 mph N/A   Clear
10:35 PM 39.2 °F 32.5 °F 32.0 °F 75% 29.93 in 10.0 mi SSW 10.4 mph 20.7 mph N/A   Clear
10:55 PM 37.4 °F 29.3 °F 32.0 °F 81% 29.93 in 10.0 mi SSW 12.7 mph 20.7 mph N/A   Clear
11:15 PM 37.4 °F 29.3 °F 32.0 °F 81% 29.92 in 10.0 mi SSW 12.7 mph 19.6 mph N/A   Clear
11:35 PM 37.4 °F 29.8 °F 32.0 °F 81% 29.93 in 10.0 mi SW 11.5 mph 17.3 mph N/A   Clear
11:55 PM 37.4 °F 29.8 °F 32.0 °F 81% 29.92 in 10.0 mi SW 11.5 mph 17.3 mph N/A   Clear
12:15 AM 37.4 °F 29.8 °F 32.0 °F 81% 29.91 in 10.0 mi SW 11.5 mph - N/A   Clear
12:35 AM 37.4 °F 30.3 °F 32.0 °F 81% 29.91 in 7.0 mi SW 10.4 mph - N/A   Clear
12:55 AM 37.4 °F 30.8 °F 32.0 °F 81% 29.90 in 7.0 mi SSW 9.2 mph - N/A   Clear